Location: Acheville
(50.3840°N, 2.8827°E)
Time: 19:22:37
(UTC+00:00)

BREEZE-M R/B - Pass Details

Date: 24 October 2021
Orbit: 597 x 26569 km, 48.9° (Epoch: 06 December)

Event Time Altitude Azimuth Distance (km) Brightness Sun altitude
Rises 17:49:48 0° 276° (W) 3,409 8.2 -11.9°
Reaches altitude 10° 17:52:21 10° 273° (W) 2,085 6.8 -12.4°
Maximum altitude 17:56:00 65° 191° (S) 668 2.8 -12.9°
Enters shadow 17:59:09 17° 111° (ESE) 1,867 4.5 -13.4°
